Location: Neuvy Saint Sepulchre
(46.5953°N, 1.8122°E)
Time: 11:01:23
(UTC+02:00)

ISS - Pass Details

Date: 21 April 2026
Orbit: 415 x 424 km, 51.6° (Epoch: 14 April)

Event Time Altitude Azimuth Distance (km) Brightness Sun altitude
Exits shadow 06:14:04 10° 236° (SW) 1,524 -1.6 -7.4°
Reaches altitude 10° 06:14:08 10° 236° (SW) 1,494 -1.6 -7.4°
Maximum altitude 06:17:29 75° 151° (SSE) 439 -3.7 -6.8°
Drops below altitude 10° 06:20:51 10° 66° (ENE) 1,506 0.9 -6.3°
Sets 06:22:58 0° 64° (ENE) 2,375 3.0 -6.0°
